Regional Weather Roundup
Issued by NWS Newport/Morehead, NC

Current Version | Previous Version | Graphics & Text | Print | Product List | Glossary Off
Versions: 1 2 3 4 5 6 7 8 9 10 11 12 13 14 15 16 17 18 19 20 21 22 23 24 25 26 27 28 29 30 31 32 33 34 35 36 37 38 39 40 41 42 43 44 45 46 47 48 49 50

670
ASUS42 KMHX 101513
RWRMHX
WEATHER ROUNDUP FOR EASTERN NORTH CAROLINA
NATIONAL WEATHER SERVICE NEWPORT/MOREHEAD CITY NC
1000 AM EST WED FEB 10 2016

NOTE: "FAIR" INDICATES FEW OR NO CLOUDS BELOW 12,000 FEET
WITH NO SIGNIFICANT WEATHER AND/OR OBSTRUCTIONS TO VISIBILITY

NCZ015>017-031-032-045>047-102-103-101600-
NORTH COAST

CITY           SKY/WX    TMP DP  RH WIND       PRES   REMARKS
EDENTON        SUNNY     36  19  49 W10       29.91S
ELIZABETH CITY SUNNY     34  18  52 W15       29.89S
KITTY HAWK     SUNNY     35  20  52 W12G20    29.87R
MANTEO         SUNNY     35  21  57 NW15G21   29.90R

$$

NCZ045>047-081-094-103-104-101600-
CENTRAL COAST

CITY           SKY/WX    TMP DP  RH WIND       PRES   REMARKS
FRISCO         SUNNY     36  18  48 NW13G25   29.91S
SWANQUARTER      N/A     34 N/A N/A W13G22    29.88S

$$

NCZ095-097-098-100-101-101600-
SOUTHERN COAST

CITY           SKY/WX    TMP DP  RH WIND       PRES   REMARKS
BEAUFORT       SUNNY     36  17  46 W15       29.95R
CEDAR ISLAND   NOT AVBL
JACKSONVILLE   SUNNY     37  15  40 W15       29.96R
PINEY ISLAND     N/A    N/A N/A N/A W16G25    29.94R
WILMINGTON     SUNNY     38  21  50 W13       29.98R


$$

NCZ011>013-027>030-043-044-078>080-089-090>093-098-101600-
COASTAL PLAIN

CITY           SKY/WX    TMP DP  RH WIND       PRES   REMARKS
AHOSKIE        SUNNY     33  17  51 W3        29.91S
CLINTON        SUNNY     35  18  50 W8        29.98R
ELIZABETHTOWN  SUNNY     35  19  51 W8        29.98S
GOLDSBORO      SUNNY     34  14  44 W16       29.93R
GREENVILLE     SUNNY     34  18  51 W9G16     29.95S
HAVELOCK       SUNNY     36  16  44 W18       29.96R
KENANSVILLE    SUNNY     34  16  47 W10       29.97R
KINSTON        SUNNY     34  16  47 W9G16     29.96R
NEW BERN       SUNNY     36  16  44 W13G22    29.95S
RICHLANDS      SUNNY     36  12  38 W10       29.97S
ROCKY MOUNT    SUNNY     33  17  51 W9G20     29.93S
WASHINGTON     SUNNY     34  17  50 NW12G21   29.93S
WHITEVILLE     SUNNY     34  20  55 SW7       29.98F

$$

AMZ130-135-150-152-154-156-158-170-250-252-270-ANZ085-086-088-633-658-670-101600-
MARINE OBSERVATIONS

STATION/POSITION TIME  TEMP    WIND        PRES    WAVE   SWELL
                       AIR SEA DIR/SP/G            HT/PER HT/PER
                 (UTC) (F)     (DEG/KT/KT) (MB)    (FT/S) (FT/S)
CHESAPEAKE LIGHT 1500   34     280/ 16/ 18 1011.5
64 E VA BEACH    1450   36 50  290/ 19/ 25 1009.6    8/ 6   3/12
DUCK             1400   32     280/ 17/ 23 1010.9
2 E DUCK         1411      44                N/A     4/13   3/13
OREGON INLET     1400   32 43  280/ 16/ 21 1011.8
13E OREGON INLT  1500      47                N/A     7/14   5/14
HATTERAS CG      1400   34 49  290/ 24/ 27 1012.4
DIAMOND BUOY     1450   37 73  290/ 21/ 27 1012.6    8/ 7   3/14
CAPE LOOKOUT     NOT AVBL
BEAUFORT LAB     1400   34 46  300/ 10/ 16 1013.1
30 SE NEW RVR IN 1408   39 59              1014.0
30 SE NEW RVR IN 1425      58                N/A     8/ 8   2/13
27 SE WRIGHTSVLE 1408   40     360/ 16/ 25 1013.0
5 SE WRIGHTSVLE  1408   37 51  290/ 14/ 21 1015.2
225 S CAPE HAT   1450   54 68  270/ 29/ 37   N/A    19/11  15/11
41 SE CHARLESTON 1450   38 63  280/ 23/ 31 1016.6    8/ 7   2/13

$$




USA.gov is the U.S. government's official web portal to all federal, state and local government web resources and services.